CW9414 Weather Reports


time (UTC)temp
C
wind
direction
speed
KPH
gust
KPH
rain 1hr
cm
rain 24hr
cm
rain mn
cm
humidity
%
barometer
mb
20260901031444 30 144 0.0 0.0 0.00 0.00 0.00 67 1010.3
20260901030444 30 144 0.0 0.0 0.00 0.00 0.00 67 1010.3
20260901025445 30 144 0.0 1.6 0.00 0.00 0.00 66 1010.3
20260901024444 30 144 0.0 0.0 0.00 0.00 0.00 65 1010.1
20260901023445 30 144 0.0 0.0 0.00 0.00 0.00 63 1010.1
20260901022444 30 144 0.0 0.0 0.00 0.00 0.00 62 1009.8
20260901021444 30 144 0.0 0.0 0.00 0.00 0.00 61 1009.7
20260901020445 31 144 0.0 3.2 0.00 0.00 0.00 60 1009.7
20260901015444 31 144 4.8 6.4 0.00 0.00 0.00 59 1009.7
20260901014447 31 144 1.6 6.4 0.00 0.00 0.00 59 1009.7
20260901013447 31 144 4.8 4.8 0.00 0.00 0.00 59 1009.7
20260901012445 32 144 0.0 4.8 0.00 0.00 0.00 58 1009.8
20260901011445 32 144 3.2 4.8 0.00 0.00 0.00 57 1009.7
20260901010447 32 144 3.2 4.8 0.00 0.00 0.00 55 1009.7
20260901005445 32 145 0.0 0.0 0.00 0.00 0.00 53 1009.6
20260901004445 32 144 0.0 1.6 0.00 0.00 0.00 54 1009.7
20260901003444 32 144 0.0 1.6 0.00 0.00 0.00 53 1009.7
20260901002445 32 144 0.0 1.6 0.00 0.00 0.00 52 1009.7
20260901001447 33 144 0.0 3.2 0.00 0.00 0.00 51 1009.7
20260901000444 33 144 0.0 3.2 0.00 0.00 0.00 50 1009.7
20260831235444 33 144 1.6 4.8 0.00 0.00 0.00 48 1009.8
20260831234444 33 145 1.6 4.8 0.00 0.00 0.00 47 1009.7
20260831233444 34 144 0.0 1.6 0.00 0.00 0.00 45 1009.8
20260831232444 34 144 1.6 8.0 0.00 0.00 0.00 44 1009.7
20260831231445 35 143 1.6 3.2 0.00 0.00 0.00 40 1009.6
20260831230444 35 143 0.0 1.6 0.00 0.00 0.00 40 1009.6
20260831225445 34 143 0.0 3.2 0.00 0.00 0.00 42 1009.7
20260831224444 34 143 0.0 1.6 0.00 0.00 0.00 43 1009.8
20260831223445 34 143 0.0 6.4 0.00 0.00 0.00 42 1009.8
20260831222444 34 143 0.0 3.2 0.00 0.00 0.00 42 1009.8
20260831221448 34 144 3.2 3.2 0.00 0.00 0.00 42 1009.8
20260831220444 34 143 1.6 6.4 0.00 0.00 0.00 43 1009.8
20260831215444 34 140 1.6 6.4 0.00 0.00 0.00 45 1010.0
20260831214447 35 109 0.0 3.2 0.00 0.00 0.00 48 1010.3
20260831213446 35 109 4.8 4.8 0.00 0.00 0.00 48 1010.3
20260831212444 35 109 0.0 3.2 0.00 0.00 0.00 47 1010.3
20260831211447 36 93 0.0 3.2 0.00 0.00 0.00 46 1010.3
20260831210444 36 135 0.0 1.6 0.00 0.00 0.00 46 1010.3
20260831205444 35 135 0.0 3.2 0.00 0.00 0.00 46 1010.4
20260831204444 36 135 0.0 6.4 0.00 0.00 0.00 46 1010.7
20260831203444 36 132 0.0 6.4 0.00 0.00 0.00 44 1010.7
20260831202444 36 132 0.0 4.8 0.00 0.00 0.00 42 1010.9
20260831201444 37 130 0.0 6.4 0.00 0.00 0.00 41 1010.9
20260831200448 37 130 0.0 4.8 0.00 0.00 0.00 39 1010.9
20260831195447 37 126 0.0 3.2 0.00 0.00 0.00 40 1011.0
20260831194444 37 126 0.0 3.2 0.00 0.00 0.00 41 1011.3
20260831193447 37 126 3.2 3.2 0.00 0.00 0.00 41 1011.3
20260831192447 36 117 0.0 3.2 0.00 0.00 0.00 42 1011.4
20260831191444 36 118 6.4 8.0 0.00 0.00 0.00 43 1011.7
20260831190444 36 119 3.2 3.2 0.00 0.00 0.00 45 1011.7
20260831185444 36 119 0.0 1.6 0.00 0.00 0.00 44 1011.9
20260831184444 36 123 0.0 4.8 0.00 0.00 0.00 44 1011.9
20260831183444 36 28 3.2 4.8 0.00 0.00 0.00 43 1011.9
20260831182444 36 28 0.0 4.8 0.00 0.00 0.00 45 1012.1
20260831181444 36 27 0.0 4.8 0.00 0.00 0.00 44 1012.4
20260831180447 36 161 1.6 3.2 0.00 0.00 0.00 47 1012.4
20260831175447 35 161 0.0 6.4 0.00 0.00 0.00 46 1012.4
20260831174444 35 74 1.6 6.4 0.00 0.00 0.00 48 1012.8
20260831173444 35 74 0.0 1.6 0.00 0.00 0.00 48 1012.8
20260831172444 34 74 0.0 4.8 0.00 0.00 0.00 50 1013.0
20260831171444 34 71 0.0 3.2 0.00 0.00 0.00 52 1013.0
20260831170444 34 71 4.8 8.0 0.00 0.00 0.00 51 1013.0
20260831165443 33 142 0.0 3.2 0.00 0.00 0.00 55 1012.9
20260831164443 33 142 0.0 4.8 0.00 0.00 0.00 52 1013.0
20260831163443 32 5 1.6 1.6 0.00 0.00 0.00 59 1013.0
20260831162443 32 5 0.0 6.4 0.00 0.00 0.00 61 1013.0
20260831161443 31 121 0.0 1.6 0.00 0.00 0.00 64 1013.1
20260831160444 31 121 3.2 4.8 0.00 0.00 0.00 66 1013.1
20260831155443 30 147 0.0 1.6 0.00 0.00 0.00 67 1013.0
20260831154443 29 147 4.8 6.4 0.00 0.00 0.00 71 1012.9
20260831153447 28 147 0.0 3.2 0.00 0.00 0.00 75 1012.9
20260831152444 28 147 0.0 0.0 0.00 0.00 0.00 78 1012.9
20260831151443 28 147 0.0 0.0 0.00 0.00 0.00 80 1012.9
20260831150446 27 147 0.0 0.0 0.00 0.00 0.00 82 1012.9
20260831145443 27 147 0.0 1.6 0.00 0.00 0.00 84 1012.7
20260831144443 27 147 0.0 1.6 0.00 0.00 0.00 86 1012.7
20260831143444 27 147 0.0 4.8 0.00 0.00 0.00 87 1012.7
20260831142444 27 147 0.0 0.0 0.00 0.00 0.00 88 1012.6
20260831141443 26 147 0.0 1.6 0.00 0.00 0.00 89 1012.4
20260831140443 26 147 0.0 0.0 0.00 0.00 0.00 89 1012.4
20260831135444 26 147 0.0 1.6 0.00 0.00 0.00 89 1012.3
20260831134443 26 147 0.0 0.0 0.00 0.00 0.00 89 1012.3
20260831133446 25 147 0.0 0.0 0.00 0.00 0.00 88 1012.3
20260831132443 25 147 0.0 0.0 0.00 0.00 0.00 88 1012.3
20260831131444 25 147 0.0 0.0 0.00 0.00 0.00 87 1011.9
20260831130443 25 147 0.0 0.0 0.00 0.00 0.00 87 1011.9
20260831125443 25 147 0.0 0.0 0.00 0.00 0.00 86 1011.8
20260831124444 25 147 0.0 0.0 0.00 0.00 0.00 86 1011.6
20260831123443 25 147 0.0 0.0 0.00 0.00 0.00 85 1011.6
20260831122443 25 147 0.0 0.0 0.00 0.00 0.00 85 1011.3
20260831121444 25 147 0.0 0.0 0.00 0.00 0.00 85 1011.2
20260831120444 25 147 0.0 0.0 0.00 0.00 0.00 85 1011.2
20260831115444 25 147 0.0 0.0 0.00 0.00 0.00 85 1011.2
20260831114446 25 147 0.0 0.0 0.00 0.00 0.00 85 1011.2
20260831113443 25 147 0.0 0.0 0.00 0.00 0.00 85 1011.2
20260831112443 25 147 0.0 0.0 0.00 0.00 0.00 84 1011.2
20260831111444 25 147 0.0 0.0 0.00 0.00 0.00 84 1011.2
20260831110443 25 147 0.0 0.0 0.00 0.00 0.00 84 1011.2
20260831105443 25 147 0.0 0.0 0.00 0.00 0.00 84 1011.1
20260831104444 25 147 0.0 0.0 0.00 0.00 0.00 84 1011.2
20260831103443 25 147 0.0 0.0 0.00 0.00 0.00 84 1011.2
20260831102443 25 147 0.0 0.0 0.00 0.00 0.00 84 1011.2
20260831101443 25 147 0.0 0.0 0.00 0.00 0.00 84 1011.3
20260831100443 25 147 0.0 0.0 0.00 0.00 0.00 84 1011.3
20260831095443 25 147 0.0 0.0 0.00 0.00 0.00 84 1011.2
20260831094443 25 147 0.0 0.0 0.00 0.00 0.00 83 1011.2
20260831093443 25 147 0.0 0.0 0.00 0.00 0.00 83 1011.2
20260831092446 25 147 0.0 0.0 0.00 0.00 0.00 83 1011.1
20260831091446 25 147 0.0 0.0 0.00 0.00 0.00 82 1011.2
20260831090444 25 147 0.0 0.0 0.00 0.00 0.00 83 1011.2
20260831085443 26 147 0.0 0.0 0.00 0.00 0.00 83 1011.3
20260831084443 26 147 0.0 0.0 0.00 0.00 0.00 83 1011.3
20260831083444 26 147 0.0 0.0 0.00 0.00 0.00 83 1011.3
20260831082443 25 165 0.0 0.0 0.00 0.00 0.00 89 1011.2
20260831081443 25 165 0.0 0.0 0.00 0.00 0.00 89 1011.3
20260831080443 25 165 0.0 0.0 0.00 0.00 0.00 89 1011.3
20260831075443 25 165 0.0 0.0 0.00 0.00 0.00 89 1011.3
20260831074443 25 165 0.0 0.0 0.00 0.00 0.00 89 1011.3
20260831073443 25 165 0.0 0.0 0.00 0.00 0.00 89 1011.3
20260831072443 25 165 0.0 0.0 0.00 0.00 0.00 89 1011.3
20260831071443 25 165 0.0 0.0 0.00 0.00 0.00 89 1011.4
20260831070443 25 165 0.0 0.0 0.00 0.00 0.00 89 1011.4
20260831065443 25 165 0.0 0.0 0.00 0.00 0.00 89 1011.6
20260831064447 25 165 0.0 0.0 0.00 0.00 0.00 89 1011.8
20260831063446 25 165 0.0 0.0 0.00 0.00 0.00 89 1011.8
20260831062443 25 165 0.0 0.0 0.00 0.00 0.00 89 1011.7
20260831061443 25 165 0.0 0.0 0.00 0.00 0.00 89 1011.8
20260831060443 25 165 0.0 0.0 0.00 0.00 0.00 89 1011.8
20260831055443 25 165 0.0 0.0 0.00 0.00 0.00 89 1011.8
20260831054443 25 165 0.0 0.0 0.00 0.00 0.00 89 1011.6
20260831053443 25 165 0.0 0.0 0.00 0.00 0.00 89 1011.6
20260831052443 25 165 0.0 0.0 0.00 0.00 0.00 89 1011.6
20260831051443 25 165 0.0 0.0 0.00 0.00 0.00 89 1011.4
20260831050446 25 165 0.0 0.0 0.00 0.00 0.00 89 1011.4
20260831045443 25 165 0.0 0.0 0.00 0.00 0.00 89 1011.4
20260831044443 25 165 0.0 0.0 0.00 0.00 0.00 89 1011.3
20260831043443 25 165 0.0 0.0 0.00 0.00 0.00 89 1011.3
20260831042446 25 165 0.0 0.0 0.00 0.00 0.00 89 1011.3
20260831041443 25 165 0.0 0.0 0.00 0.00 0.00 89 1011.2
20260831040443 25 165 0.0 0.0 0.00 0.00 0.00 89 1011.2
20260831035443 25 165 0.0 0.0 0.00 0.00 0.00 89 1011.1
20260831034443 25 165 0.0 0.0 0.00 0.00 0.00 89 1010.9
20260831033443 25 165 0.0 0.0 0.00 0.00 0.00 89 1010.9
20260831032443 25 165 0.0 0.0 0.00 0.00 0.00 89 1010.8